EHI
15 14 11 6 3 2 2 2 1 0 0 0 0 0 0 0 0 0 0 0 0 0 0 0 0 0 0 0 0 0 0 0 0 0 0 0 0 0 0 0 0 0 0
12 11 7 3 1 1 1 1 0 0 0 0 0 0 0 0 0 0 0 0 0 0 0 0 0 0 0 0 0 0 0 0 0 0 0 0 0 0 0 0 0 0 0
9 7 3 1 0 0 0 0 0 0 0 0 0 0 0 0 0 0 0 0 0 0 0 0 0 0 0 0 0 0 0 0 0 0 0 0 0 0 0 0 0 0 0
7 4 1 0 0 0 0 0 0 0 0 0 0 0 1 1 1 0 0 0 0 0 0 0 0 0 0 0 0 0 0 0 0 0 0 0 0 0 0 0 0 0 0
5 3 1 0 0 0 0 1 1 1 1 1 1 1 2 2 1 0 0 0 0 0 0 0 0 0 0 0 0 0 0 0 0 0 0 0 0 0 0 0 0 0 0
2 2 2 1 1 2 2 3 3 3 3 3 2 3 3 2 1 0 0 0 0 0 0 0 0 0 0 0 0 0 0 0 0 0 0 0 0 0 0 0 0 0 0
2 2 3 4 4 5 5 5 5 5 4 3 3 3 2 1 0 0 0 0 0 0 0 0 0 0 0 0 0 0 0 0 0 0 0 0 0 0 0 0 0 0 0
2 3 3 5 6 6 6 6 5 4 3 3 3 2 1 0 0 0 0 0 0 0 0 0 0 0 0 0 0 0 0 0 0 0 0 0 0 0 0 0 0 0 0
2 3 3 4 4 5 5 4 3 3 3 2 1 1 0 0 0 0 0 0 0 0 0 0 0 0 0 0 0 0 0 0 0 0 0 0 0 0 0 0 0 0 0
2 2 3 3 3 3 4 3 2 2 2 1 0 0 0 0 0 0 0 0 0 0 0 0 0 0 0 0 0 0 0 0 0 0 0 0 0 0 0 0 0 0 0
3 3 4 3 3 2 3 2 2 1 1 0 0 0 0 0 0 0 0 0 0 0 0 0 0 0 0 0 0 0 0 0 0 0 0 0 0 0 0 0 0 0 0
3 4 4 3 2 2 2 1 1 0 0 0 0 0 0 0 0 0 0 0 0 0 0 0 0 0 0 0 0 0 0 0 0 0 0 0 0 0 0 0 0 0 0
1 1 1 1 1 1 1 0 0 0 0 0 0 0 0 0 0 0 0 0 0 0 0 0 0 0 0 0 0 0 0 0 0 0 0 0 0 0 0 0 0 0 0
0 0 0 0 0 0 0 0 0 0 0 0 0 0 0 0 0 0 0 0 0 0 0 0 0 0 0 0 0 0 0 0 0 0 0 0 0 0 0 0 0 0 0
0 0 0 0 0 0 0 0 0 0 0 0 0 0 0 0 0 0 0 0 0 0 0 0 0 0 0 0 0 0 0 0 0 0 0 0 0 0 0 0 0 0 0
0 0 0 0 0 0 0 0 0 0 0 0 0 0 0 0 0 0 0 0 0 0 0 0 0 0 0 0 0 0 0 0 0 0 0 0 0 0 0 0 0 0 0
0 0 0 0 0 0 0 0 0 0 0 0 0 0 0 0 0 0 0 0 0 0 0 0 0 0 0 0 0 0 0 0 0 0 0 0 0 0 0 0 0 0 0
0 0 0 0 0 0 0 0 0 0 0 0 0 0 0 0 0 0 0 0 0 0 0 0 0 0 0 0 0 0 0 0 0 0 0 0 0 0 0 0 0 0 0
0 0 0 0 0 0 0 0 0 0 0 0 0 0 0 0 0 0 0 0 0 0 0 0 0 0 0 0 0 0 0 0 0 0 0 0 0 0 0 0 0 0 0
0 0 0 0 0 0 0 0 0 0 0 0 0 0 0 0 0 0 0 0 0 0 0 0 0 0 0 0 0 0 0 0 0 0 0 0 0 0 0 0 0 0 0
0 0 0 0 0 0 0 0 0 0 0 0 0 0 0 0 0 0 0 0 0 0 0 0 0 0 0 0 0 0 0 0 0 0 0 0 0 0 0 0 0 0 0
0 0 0 0 0 0 0 0 0 0 0 0 0 0 0 0 0 0 0 0 0 0 0 0 0 0 0 0 0 0 0 0 0 0 0 0 0 0 0 0 0 0 0
0 0 0 0 0 0 0 0 0 0 0 0 0 0 0 0 0 0 0 0 0 0 0 0 0 0 0 0 0 0 0 0 0 0 0 0 0 0 0 0 0 0 0
0 0 0 0 0 0 0 0 0 0 0 0 0 0 0 0 0 0 0 0 0 0 0 0 0 0 0 0 0 0 0 0 0 0 0 0 0 0 0 0 0 0 0
0 0 0 0 0 0 0 0 0 0 0 0 0 0 0 0 0 0 0 0 0 0 0 0 0 0 0 0 0 0 0 0 0 0 0 0 0 0 0 0 0 0 0
0 0 0 0 0 0 0 0 0 0 0 0 0 0 0 0 0 0 0 0 0 0 0 0 0 0 0 0 0 0 0 0 0 0 0 0 0 0 0 0 0 0 0
Wind_Speed
3 3 2 2 2 2 2 2 2 2 2 3 4 4 4 4 5 5 5 5 6 5 4 5 5 4 3 3 3 3 3 3 4 3 1 2 1 1 1 1 1 1 1
3 3 2 2 2 1 1 1 1 1 1 2 2 3 3 3 3 4 5 5 5 5 5 5 5 4 4 3 3 3 3 3 3 3 2 1 1 2 2 2 1 1 1
3 3 2 2 2 1 1 0 1 1 0 1 1 2 2 2 3 3 4 4 4 4 4 4 4 4 4 3 3 3 2 2 2 2 1 1 1 1 2 2 2 2 1
4 4 3 2 2 2 1 1 1 1 1 1 1 1 1 1 1 2 3 3 2 2 2 2 2 3 4 3 3 2 2 2 2 1 1 1 1 1 1 1 2 2 2
4 3 2 2 2 3 3 3 3 3 2 2 3 3 2 2 1 2 3 3 3 3 2 2 1 2 3 2 2 2 2 2 2 1 1 0 1 1 1 1 1 1 1
4 3 3 3 4 4 4 4 4 4 4 5 4 4 4 3 4 5 5 4 3 3 2 2 2 3 4 5 5 5 4 3 2 1 1 1 1 1 1 1 1 1 1
4 3 4 4 4 4 4 5 5 4 5 5 5 5 5 6 7 7 8 5 5 4 3 3 3 4 4 4 6 7 7 7 4 2 2 1 1 1 1 1 2 1 1
4 4 4 5 5 5 5 5 5 5 5 5 5 6 6 7 9 9 9 7 6 6 5 4 4 5 4 5 6 7 6 6 6 4 4 3 3 3 2 2 1 2 2
5 4 4 5 5 5 5 5 5 5 6 6 6 7 8 7 9 9 8 6 7 8 7 7 6 6 6 7 7 7 7 6 9 11 10 9 10 10 6 4 3 3 2
4 4 5 5 5 5 5 5 5 6 6 7 8 8 8 7 9 9 7 6 7 7 7 8 11 9 8 8 7 7 7 5 6 7 8 9 9 10 11 6 3 2 1
5 6 6 6 6 5 6 6 7 7 8 8 9 8 8 8 10 11 9 6 6 7 7 7 8 13 13 12 10 7 7 6 6 7 6 6 6 6 7 6 5 3 2
7 7 7 7 6 6 7 7 7 7 8 7 8 8 7 7 9 11 13 11 8 8 7 6 7 13 14 13 10 10 10 8 6 6 6 6 5 5 5 6 6 6 4
8 8 8 8 8 7 7 7 6 6 6 6 6 6 6 6 7 12 13 13 12 8 7 11 11 12 12 10 13 12 8 6 5 6 5 4 4 4 4 4 5 5 5
8 8 7 8 8 8 7 6 6 5 5 5 6 6 5 5 5 5 6 7 10 9 7 10 12 13 11 10 9 8 6 6 5 5 4 3 3 4 5 5 4 4 4
9 8 7 8 8 9 8 7 6 5 3 5 4 4 5 5 4 6 5 5 5 5 6 6 6 6 7 6 6 6 6 5 5 4 4 4 4 4 4 4 4 4 4
8 7 6 6 6 7 8 9 14 11 14 13 9 7 7 7 9 12 13 12 10 8 7 6 6 6 5 5 5 5 5 5 5 4 4 4 4 4 4 4 4 4 4
8 7 6 6 6 6 6 7 8 9 14 15 12 11 11 10 12 13 13 13 11 9 7 6 5 5 4 4 4 4 4 4 4 4 4 4 3 3 3 4 4 4 4
8 8 7 5 5 6 6 6 6 7 6 6 9 11 11 11 11 10 9 9 8 7 6 5 4 4 4 4 4 3 3 4 4 4 4 4 3 3 4 4 4 4 4
7 6 5 5 6 6 6 6 6 7 7 5 5 6 8 9 10 10 7 6 6 5 5 5 4 3 3 3 3 3 3 3 3 3 3 3 3 3 3 3 3 4 3
7 11 9 6 6 6 6 6 6 6 6 5 5 4 3 4 5 5 5 5 5 4 4 4 3 3 3 3 3 3 3 3 3 3 3 3 3 3 3 4 3 3 3
6 8 11 8 6 6 6 6 6 6 5 5 4 4 5 5 5 5 4 4 4 4 3 3 3 3 3 2 2 3 3 3 3 3 3 3 3 3 3 3 3 3 3
6 6 6 6 6 6 6 5 5 5 6 6 4 5 6 5 4 4 4 3 3 3 2 2 2 2 2 2 2 2 2 2 3 3 3 2 2 2 3 3 3 3 3
7 7 7 6 6 7 6 5 5 5 5 5 5 4 4 4 4 3 3 3 3 2 2 2 2 2 2 2 2 2 2 2 2 2 2 2 2 2 2 3 4 4 4
6 7 7 6 5 5 5 5 4 5 5 5 4 4 3 3 3 3 3 2 2 2 2 2 2 2 3 3 2 2 2 2 3 2 2 2 2 2 2 3 3 4 4
6 6 6 5 5 5 5 5 4 4 4 4 3 3 3 3 3 2 2 2 2 2 2 1 1 2 3 4 3 3 4 4 3 2 2 2 2 3 3 3 3 4 4
5 6 5 5 4 4 5 4 4 4 3 3 3 3 3 3 2 2 2 1 1 1 1 1 1 1 2 3 4 4 4 4 4 4 2 2 2 3 3 3 4 4 4
Wind_Direction
173 180 173 180 186 183 199 214 215 215 207 211 207 205 207 209 206 202 209 203 204 208 203 202 212 206 204 207 202 199 203 197 229 266 282 308 312 310 320 285 251 235 245
158 153 157 159 151 160 195 210 192 198 209 208 198 199 207 209 204 200 207 203 201 204 202 199 212 204 202 202 197 204 206 202 215 249 285 328 325 325 336 343 334 317 294
127 131 132 131 133 147 151 106 112 140 161 171 162 189 206 203 198 201 198 194 197 200 197 200 208 196 201 198 195 201 205 195 194 215 262 322 328 342 350 352 357 344 353
121 124 129 138 144 135 118 94 83 79 80 81 90 95 117 138 162 172 160 156 154 147 147 168 187 194 201 197 197 197 179 161 164 182 211 293 315 326 353 338 342 348 350
113 110 116 116 110 101 90 79 74 73 72 69 68 62 61 70 93 123 128 127 124 115 103 104 111 118 125 140 151 162 157 151 152 155 154 60 343 339 317 308 315 330 352
111 113 106 99 97 95 88 79 74 69 66 65 64 65 64 61 77 92 106 106 106 110 105 91 80 75 87 92 95 102 115 129 135 120 98 82 8 345 331 339 340 352 345
108 106 101 97 91 86 86 77 69 64 69 70 67 68 65 58 65 76 84 90 85 80 78 74 73 69 78 85 83 80 75 72 87 115 99 57 34 354 14 39 33 32 8
106 102 100 100 95 89 87 81 72 66 65 66 61 69 70 60 62 71 79 81 77 67 62 71 81 69 67 83 86 80 70 57 59 69 77 58 49 36 31 42 44 55 41
101 99 102 104 103 99 96 92 89 85 76 69 65 65 67 56 51 65 79 81 75 63 55 55 67 74 70 88 93 88 75 61 60 65 66 64 59 53 50 54 45 50 31
100 97 97 99 102 102 102 97 88 86 84 79 69 61 64 57 47 58 74 85 80 72 62 54 54 64 70 80 89 90 84 68 64 62 55 49 49 47 44 44 38 46 45
93 94 93 93 93 96 96 90 91 90 86 82 77 64 57 53 53 57 66 81 87 82 71 60 53 62 67 66 70 74 81 83 73 68 60 50 43 40 36 35 34 41 45
93 90 86 85 88 90 92 89 90 93 91 85 81 70 55 49 52 58 63 70 79 83 76 68 63 64 66 64 67 70 73 75 73 66 58 46 37 32 26 29 36 42 45
94 89 85 83 79 81 89 94 90 88 92 90 85 78 62 52 52 59 65 70 74 81 79 78 71 66 66 63 59 59 59 62 67 67 60 46 29 20 19 24 29 33 39
102 96 90 89 83 74 70 73 82 83 92 93 92 89 79 64 53 55 65 72 74 79 79 73 68 63 63 59 53 50 51 54 62 64 58 41 30 33 33 24 24 19 27
102 98 92 88 91 82 70 57 64 55 77 102 99 100 96 80 53 71 85 80 82 90 87 69 60 57 56 53 51 49 47 46 50 48 49 46 39 37 31 23 27 29 31
107 102 99 99 97 98 95 78 57 66 68 71 80 92 78 88 90 82 80 79 81 88 80 72 66 64 63 59 56 50 44 42 40 45 47 44 39 34 30 26 27 28 23
113 112 107 106 107 107 105 105 96 67 60 60 66 79 88 92 87 86 85 78 69 76 78 77 73 68 64 58 54 52 44 34 33 40 41 34 31 31 30 24 21 20 15
108 112 113 111 111 109 106 104 104 104 89 63 52 65 79 84 84 86 89 83 66 61 73 77 73 66 61 55 49 44 40 36 35 34 31 27 25 27 26 21 18 11 3
107 109 108 109 108 107 105 102 100 99 98 94 83 66 71 79 73 65 69 78 84 76 73 71 67 61 54 49 45 42 39 34 30 27 25 21 18 21 20 13 9 4 360
101 110 110 109 110 109 109 109 108 106 103 99 94 90 85 79 76 64 64 75 81 80 76 72 63 58 51 46 40 37 35 31 26 25 17 12 10 13 12 6 2 359 355
107 110 110 107 107 110 112 113 114 114 111 104 93 84 98 97 92 84 80 77 81 83 80 75 67 54 44 38 35 33 31 23 17 12 8 4 5 8 3 360 358 357 350
107 107 108 110 108 105 107 110 113 113 114 109 98 89 90 93 94 90 85 81 77 74 78 81 67 48 33 25 20 21 21 16 9 4 359 357 1 2 358 358 357 353 351
111 112 108 105 106 108 104 104 108 112 113 114 113 107 102 101 101 97 91 83 79 76 70 69 65 45 30 24 15 6 1 354 340 333 337 344 351 354 352 350 348 345 345
114 115 114 113 111 112 112 112 114 117 119 120 117 115 115 113 109 105 100 94 88 78 68 60 54 45 31 17 10 6 353 333 319 313 319 323 331 337 339 338 336 335 331
115 117 119 121 121 119 118 117 119 121 123 125 126 123 120 118 114 112 109 107 105 90 66 47 38 32 24 15 9 6 357 350 345 340 327 326 333 334 333 331 331 329 326
117 120 120 120 120 123 126 128 131 132 129 127 127 131 135 137 139 141 138 134 132 119 84 32 15 12 9 7 8 5 360 359 360 351 339 338 340 338 335 326 328 328 329